This is the latest recevied weather packets stored in our database for station/object RV1CJ-14. If no packets are shown the sender has not sent any weather packets the latest 10 day(s).
| Time | Temp. | Humidity | Pressure | Rain* | Wind** | Luminosity | Snow |
|---|---|---|---|---|---|---|---|
| 1777643404 | 15° C | 62% | 1014.5 hPa | 0 mm | - | 33 W/m² | - |
| 1777642803 | 15° C | 62% | 1014.6 hPa | 0 mm | - | 33 W/m² | - |
| 1777642203 | 15° C | 61% | 1014.7 hPa | 0 mm | - | 35 W/m² | - |
| 1777641603 | 15.56° C | 60% | 1014.7 hPa | 0 mm | - | 40 W/m² | - |
| 1777641003 | 15.56° C | 61% | 1014.8 hPa | 0 mm | - | 56 W/m² | - |
| 1777640404 | 15.56° C | 61% | 1014.8 hPa | 0 mm | - | 58 W/m² | - |
| 1777639803 | 15.56° C | 62% | 1014.9 hPa | 0 mm | - | 60 W/m² | - |
| 1777639203 | 15° C | 62% | 1015.1 hPa | 0 mm | - | 67 W/m² | - |
| 1777638604 | 15° C | 61% | 1015.2 hPa | 0 mm | - | 81 W/m² | - |
| 1777638003 | 15° C | 63% | 1015.4 hPa | 0 mm | - | 109 W/m² | - |
| 1777637404 | 14.44° C | 62% | 1015.5 hPa | 0 mm | - | 97 W/m² | - |
| 1777636803 | 14.44° C | 62% | 1015.7 hPa | 0 mm | - | 88 W/m² | - |
| 1777636203 | 14.44° C | 61% | 1015.8 hPa | 0 mm | - | 56 W/m² | - |
| 1777635604 | 13.89° C | 62% | 1016 hPa | 0 mm | - | 56 W/m² | - |
| 1777635003 | 13.33° C | 62% | 1016.1 hPa | 0 mm | - | 62 W/m² | - |
| 1777634403 | 13.33° C | 62% | 1016.2 hPa | 0 mm | - | 95 W/m² | - |
| 1777633803 | 13.33° C | 62% | 1016.3 hPa | 0 mm | - | 74 W/m² | - |
| 1777633204 | 12.78° C | 63% | 1016.4 hPa | 0 mm | - | 174 W/m² | - |
| 1777632603 | 12.78° C | 63% | 1016.5 hPa | 0 mm | - | 153 W/m² | - |
| 1777632003 | 12.78° C | 63% | 1016.7 hPa | 0 mm | - | 229 W/m² | - |
| 1777631403 | 12.78° C | 64% | 1016.7 hPa | 0 mm | - | 218 W/m² | - |
| 1777630803 | 12.22° C | 66% | 1016.9 hPa | 0 mm | - | 160 W/m² | - |
| 1777630203 | 12.22° C | 66% | 1016.9 hPa | 0 mm | - | 156 W/m² | - |
| 1777629604 | 11.67° C | 65% | 1017 hPa | 0 mm | - | 163 W/m² | - |
| 1777629003 | 12.22° C | 66% | 1017.1 hPa | 0 mm | - | 141 W/m² | - |
* Rain latest hour (hover to see other rain measurements)
** Current wind speed in m/s (hover to see current wind gust speed)